Location: Newark
(7.0858°N, 171.3717°E)
Time: 23:57:52
(UTC+00:00)

N. Korean satellite - Visible Passes

Search period start: 23 September 2020 00:00
Search period end: 03 October 2020 00:00
Orbit: 455 x 503 km, 97.2° (Epoch: 23 September)

Date Brightness Start Highest point End Pass type
(mag) Time Alt. Az. Time Alt. Az. Time Alt. Az.
23 Sep 8.6 17:23:42 10° NE 17:26:50 30° E 17:29:56 10° SSE visible
24 Sep 10.0 16:59:38 10° E 17:00:51 11° E 17:02:03 10° ESE visible
26 Sep 7.2 17:38:38 10° NNE 17:42:05 57° E 17:45:30 10° S visible
27 Sep 9.4 17:13:28 10° NE 17:16:06 20° E 17:18:43 10° SSE visible
29 Sep 6.4 17:53:49 10° N 17:57:18 73° W 18:00:45 10° SSW visible
30 Sep 8.2 17:28:06 10° NNE 17:31:19 36° E 17:34:31 10° SSE visible
01 Oct 9.9 17:03:34 10° ENE 17:05:19 13° E 17:07:05 10° SE visible
